Bloomington, IL

4:28 PM CST on December 06, 2016 (GMT -0600)
Central Ill Regional

Weather History for KBMI - December, 2013

Change the Weather History Date:

Saturday, December 7, 2013

  Actual Average Record
Temperature  
Mean Temperature 12 °F -  
Max Temperature 20 °F 32 °F 51 °F (2004)
Min Temperature 5 °F 20 °F 0 °F (2005)
Degree Days  
Heating Degree Days 52    
Moisture  
Dew Point 2 °F    
Average Humidity 68    
Maximum Humidity 84    
Minimum Humidity 44    
Precipitation  
Precipitation 0.00 in - - ()
Sea Level Pressure  
Sea Level Pressure 30.70 in    
Wind  
Wind Speed 9 mph (North)    
Max Wind Speed 12 mph    
Max Gust Speed -    
Visibility 10 miles    
Events      
Averages and records for this station are not official NWS values.
T = Trace of Precipitation, MM = Missing Value Source: NWS Daily Summary

Daily Weather History Graph

Daily Weather History Graph

Search for Another Location

Airport or City:

Trip Planner

Search our weather history database for the weather conditions in past years. The results will help you decide how hot, cold, wet, or windy it might be!

Date:

Astronomy

Dec. 07, 2013 Rise Set
Actual Time 7:05 AM CST 4:28 PM CST
Civil Twilight 6:35 AM CST 4:59 PM CST
Nautical Twilight 6:00 AM CST 5:33 PM CST
Astronomical Twilight 5:27 AM CST 6:06 PM CST
Moon 10:49 AM CST (12/7) 10:11 PM CST (12/7)
Length of Visible Light 10h 24m
Length of Day
9h 23m
Waxing Crescent, 29% of the Moon is Illuminated
Dec 7
Waxing Crescent
Dec 9
First Quarter
Dec 17
Full
Dec 25
Last Quarter
Jan 1
New

Hourly Weather History & Observations

Time (CST) Temp. Windchill Dew Point Humidity Pressure Visibility Wind Dir Wind Speed Gust Speed Precip Events Conditions
12:56 AM 9.1 °F -4.9 °F 2.1 °F 73% 30.65 in 10.0 mi NNW 10.4 mph - N/A   Clear
1:56 AM 9.1 °F -4.9 °F 2.1 °F 73% 30.66 in 10.0 mi NNW 10.4 mph - N/A   Clear
2:56 AM 7.2 °F -6.4 °F 1.0 °F 76% 30.68 in 10.0 mi North 9.2 mph - N/A   Clear
3:56 AM 7.2 °F -5.4 °F 1.0 °F 76% 30.69 in 10.0 mi North 8.1 mph - N/A   Clear
4:56 AM 6.1 °F -6.8 °F 1.0 °F 80% 30.71 in 10.0 mi NNW 8.1 mph - N/A   Clear
5:56 AM 5.0 °F -8.1 °F 1.0 °F 84% 30.73 in 10.0 mi NNW 8.1 mph - N/A   Clear
6:56 AM 5.0 °F -8.1 °F 1.0 °F 84% 30.75 in 10.0 mi NNW 8.1 mph - N/A   Clear
7:56 AM 6.1 °F -9.5 °F 1.0 °F 80% 30.75 in 10.0 mi North 11.5 mph - N/A   Clear
8:56 AM 9.1 °F -5.6 °F 2.1 °F 73% 30.77 in 10.0 mi North 11.5 mph - N/A   Clear
9:56 AM 11.1 °F -3.2 °F 3.0 °F 70% 30.78 in 10.0 mi NNW 11.5 mph - N/A   Clear
10:56 AM 15.1 °F 3.3 °F 4.1 °F 62% 30.77 in 10.0 mi NNW 9.2 mph - N/A   Clear
11:56 AM 17.1 °F 5.0 °F 3.0 °F 54% 30.75 in 10.0 mi NNW 10.4 mph - N/A   Clear
12:56 PM 19.0 °F 6.8 °F 3.0 °F 50% 30.73 in 10.0 mi North 11.5 mph - N/A   Clear
1:56 PM 19.0 °F 9.0 °F 2.1 °F 48% 30.71 in 10.0 mi North 8.1 mph - N/A   Clear
2:56 PM 20.1 °F 9.5 °F 1.0 °F 44% 30.70 in 10.0 mi NNE 9.2 mph - N/A   Clear
3:56 PM 18.1 °F 7.1 °F 0.1 °F 45% 30.69 in 10.0 mi NNE 9.2 mph - N/A   Clear
4:56 PM 14.0 °F 2.9 °F 1.0 °F 56% 30.71 in 10.0 mi NNE 8.1 mph - N/A   Clear
5:56 PM 12.0 °F 1.5 °F 2.1 °F 65% 30.70 in 10.0 mi NE 6.9 mph - N/A   Clear
6:56 PM 11.1 °F -0.6 °F 2.1 °F 67% 30.69 in 10.0 mi NE 8.1 mph - N/A   Clear
7:56 PM 9.1 °F -1.9 °F 2.1 °F 73% 30.67 in 10.0 mi ENE 6.9 mph - N/A   Clear
8:56 PM 9.1 °F -1.9 °F 2.1 °F 73% 30.63 in 10.0 mi ENE 6.9 mph - N/A   Clear
9:56 PM 9.1 °F 0.8 °F 2.1 °F 73% 30.63 in 10.0 mi ENE 4.6 mph - N/A   Clear
10:56 PM 10.0 °F - 2.1 °F 70% 30.66 in 10.0 mi Calm Calm - N/A   Clear
11:56 PM 11.1 °F -1.6 °F 4.1 °F 73% 30.63 in 10.0 mi NNE 9.2 mph - N/A   Clear